Location: Oriwa
(40.7500°S, 175.3333°E)
Time: 12:11:36
(UTC+00:00)

Cosmos 2056 Rocket - Pass Details

Date: 03 February 2023
Orbit: 742 x 799 km, 74.0° (Epoch: 30 March)

Event Time Altitude Azimuth Distance (km) Brightness Sun altitude
Rises 14:20:38 0° 201° (SSW) 3,317 7.3 -27.5°
Reaches altitude 10° 14:23:02 10° 202° (SSW) 2,388 6.5 -27.3°
Enters shadow 14:28:17 77° 256° (WSW) 829 3.5 -26.8°
